Regional Weather Roundup
Issued by NWS

Home | Current Version | Previous Version | Graphics & Text | Print | Product List | Glossary On
Versions: 1 2 3 4 5 6 7 8 9 10 11 12 13 14 15 16 17 18 19 20 21 22 23 24 25 26 27 28 29 30 31 32 33 34 35 36 37 38 39 40 41 42 43 44 45 46 47 48 49 50
000
ASUS43 KDMX 250907
RWRIA

WEATHER ROUNDUP FOR IOWA
NATIONAL WEATHER SERVICE DES MOINES IA
400 AM CDT FRI JUL 25 2014

NOTE: "FAIR" INDICATES FEW OR NO CLOUDS BELOW 12,000 FEET WITH NO
SIGNIFICANT WEATHER AND/OR OBSTRUCTIONS TO VISIBILITY.

* - THESE STATIONS ARE NOT NWS STATIONS...THUS NOT UNDER NWS
QUALITY CONTROL.  THEY ALSO DO NOT REPORT WEATHER SUCH
AS PRECIPITATION OR FOG.

IAZ001>003-012>014-020>022-031>034-043>046-251000-
   NORTHWEST IOWA

CITY           SKY/WX    TMP DP  RH WIND       PRES   REMARKS
CARROLL *      PTCLDY    66  61  82 SE10G18   29.83R
CHEROKEE *     MOCLDY    66  63  88 E12G17    29.81S
DENISON *      CLEAR     68  63  83 E12       29.76F
LE MARS *      CLEAR     68  63  83 E10       29.76R
ORANGE CITY *  CLEAR     66  61  82 E13G20    29.78R
SHELDON *      PTCLDY    64  63  94 SE10G21   29.79R
SIOUX CITY     PTCLDY    77  64  64 S3        29.71R
SPENCER        CLOUDY    65  62  90 SE20G26   29.83S
STORM LAKE *   CLEAR     64  64 100 E15       29.84R
$$

IAZ055>058-069>071-079>083-090>094-251000-
   SOUTHWEST IOWA

CITY           SKY/WX    TMP DP  RH WIND       PRES   REMARKS
ATLANTIC *     MOCLDY    70  61  73 NE13G26   29.83R
AUDUBON *      PTCLDY    72  64  78 S12       29.82F
CLARINDA *     MOCLDY    68  63  83 SE6       29.89F
COUNCIL BLFS *   N/A     73  70  88 SW18G29   29.73F
CRESTON *      CLOUDY    68  59  73 S13       29.90F
HARLAN  *        N/A     72  63  73 VRB6G17   29.82R
LAMONI         CLOUDY    66  58  75 SE7       29.93R
RED OAK *      MOCLDY    70  63  78 S16       29.80F
SHENANDOAH *   PTCLDY    70  63  78 S7        29.85F
$$

IAZ047>049-059>061-072>074-084-251000-
   CENTRAL IOWA

CITY           SKY/WX    TMP DP  RH WIND       PRES   REMARKS
AMES           CLOUDY    63  62  97 SE15G25   29.92F
ANKENY *       LGT RAIN  63  61  94 E13       29.95S
CHARITON *     CLOUDY    66  57  72 S15       29.92F
DES MOINES     CLOUDY    66  61  84 E12       29.93S
GRINNELL*      RAIN      63  59  88 SE6       30.02F
KNOXVILLE *    CLOUDY    66  57  72 NE13G18   29.98R
MARSHALLTOWN   LGT RAIN  63  60  90 S9        29.99F
PELLA *        LGT RAIN  64  59  82 NE5       30.03R
PERRY *          N/A     64  63  94 SE12      29.87F
$$

IAZ004>006-015-016-023>025-035-036-251000-
   NORTH CENTRAL IOWA

CITY           SKY/WX    TMP DP  RH WIND       PRES   REMARKS
ALGONA *       LGT RAIN  64  63  94 SE22G31   29.87F
CLARION *      RAIN      64  64 100 E12G18    29.96R
ESTHERVILLE    TSTM      66  63  90 S24G38    29.80F FOG
FORT DODGE *   CLOUDY    64  61  88 E20       29.93R
MASON CITY     LGT RAIN  63  62  97 S28G40    29.83F
FOREST CITY *  MOCLDY    63  63 100 S18G36    29.84F
IOWA FALLS *   HVY RAIN  64  61  88 SW10      30.01R
$$

IAZ007>011-017>019-026>030-037>042-050>054-066-251000-
   NORTHEAST IOWA

CITY           SKY/WX    TMP DP  RH WIND       PRES   REMARKS
CEDAR RAPIDS   CLOUDY    64  57  78 S6        30.00R
CHARLES CITY * LGT RAIN  64  59  82 S12G17    29.99S
CLINTON *      CLEAR     61  55  82 SE6       30.04R
DECORAH *      LGT RAIN  63  59  88 S7        29.98R
DUBUQUE        PTCLDY    60  57  89 S8        30.00S
MONTICELLO *   CLEAR     61  59  94 SE3       30.01R
OELWEIN *      MOCLDY    64  59  82 S9        30.01R
WATERLOO       LGT RAIN  65  58  78 S12       29.96S
$$

IAZ064-065-067-068-078-251000-
   EAST CENTRAL IOWA

CITY           SKY/WX    TMP DP  RH WIND       PRES   REMARKS
DAVENPORT      CLEAR     63  55  75 S9        30.01R
IOWA CITY      CLOUDY    64  58  80 CALM      30.04R
MT. PLEASANT * CLOUDY    63  55  77 SE6       29.99S
MUSCATINE *    CLEAR     63  57  82 SE5       30.00R
QUAD CITIES    PTCLDY    61  55  81 SE8       30.00R
$$

IAZ062-063-075>077-085>089-095>099-251000-
   SOUTHEAST IOWA

CITY           SKY/WX    TMP DP  RH WIND       PRES   REMARKS
BURLINGTON     PTCLDY    65  56  72 S9        30.00R
FAIRFIELD *    MOCLDY    64  57  77 SE10      29.97F
FORT MADISON * CLEAR     64  57  77 SE7       30.00S
KEOKUK *       CLEAR     64  55  72 SE9       29.99R
OSKALOOSA *    RAIN      63  59  88 N14       30.04R
CENTERVILLE *  CLEAR     64  57  77 SE6       29.97R
OTTUMWA        CLOUDY    65  56  72 SE8       29.97R
WASHINGTON *   CLEAR     63  59  88 SE9       29.99S
$$

ABBREVIATIONS USED IN REMARKS
   TC - TEMPERATURES IN CELSIUS
  WCI - WIND CHILL INDEX
   HX - HEAT INDEX
  VSB - VISIBILITY
$$




USA.gov is the U.S. government's official web portal to all federal, state and local government web resources and services.